STARLINK-32573, 61725

Orbit data source: Space-Track

STARLINK-32573, 61725 is a payload satellite owned by SpaceX/Seattle (US) in LEO that was launched on Wed, 30 Oct 2024 UTC via an FALCON 9 launch vehicle from the Air Force Eastern Test Range (AFETR). Payload-class satellites include a variety of spacecraft equipped with specific instruments for various scientific and technological missions. These include communications satellites like Starlink; space stations such as the ISS; scientific satellites like the Hubble; Earth observation satellites from companies like Planet Labs, Umbra, and HawkEye 360; GPS; miniature CubeSats for education and research; and military/defense satellites.

Loading next visibility...
Identifier
61725, 2024-196U
Orbit
LEO
Country
Flag of USUS
Related business
Manufacturer
SpaceX/Seattle
Mission
Operational Commercial Communications
Bus & Motor
STARLINK V2M, Unknown motor
Mass
730 kg wet, ~700 kg dry
Launch date (UTC)
2024-10-30 (1 year ago)
Launch vehicle
FALCON 9
Launch site
Air Force Eastern Test Range (AFETR)
Object type
Payload
Rocket body
Debris
Shape & HBR
Box + 2 Pan, 17.7 m
Radar Cross Section
33.884 m², Large (>1 m²)

Expand to show TLE details & history
Last TLE update: 1 day ago

TLE from 1 day ago
0 STARLINK-32573
1 61725U 24196U   25312.26327143  .00000438  00000-0  26921-4 0  9993
2 61725  53.1614 305.5008 0001436  93.1114 267.0051 15.30195564 58561
Epoch: 2025-11-08T06:19Z
TLE epoch observation values (Epoch: 2025-11-08T06:19:06.651Z)
Latitude
-0.00003°
Longitude
163.02767°
Altitude
476.18 km
Speed
7.629 km/s
True Right ascension
20h 22m 00s
True Declination
0° 00' 00"
Sunlit
Object was in daylight at epoch
Visualization orbit readout
Latitude
Unknown
Longitude
Unknown
Altitude
Unknown
Speed
Unknown
Apparent Right ascension
Unknown
Apparent Declination
Unknown
Sunlit
N/A
Visualization observer readout
Local Sidereal Time
12:02:16
Azimuth
Unknown
Elevation
Unknown
Doppler factor
Unknown
Orbital elements
Apogee altitude
476.469 km
Perigee altitude
474.5 km
Semi-major axis
6,853.622 km
Eccentricity
0.00014
Inclination
53.1614°
RAAN
305.5008°
Arg. of periapsis
93.1114°
True anomaly
266.98867°
Mean anomaly
267.0051°
Eccentric anomaly
266.99688°
Mean motion
3.82528 °/min
Orbital period
94.11 mins
BSTAR
0.000026921
Loading maneuver chart data...
Computing Atmospheric mass density...
Loading historical data...
Loading historical data...
Loading historical data...
Loading historical data...
Loading historical data...
Loading historical data...
Loading historical data...

Documentation

Showing up to 5 results
|